EW0159 Weather Reports


Display with metric or nautical units.
time (UTC)temp
F
wind
direction
speed
MPH
gust
MPH
rain 1hr
in
rain 24hr
in
rain mn
in
humidity
%
barometer
mb
20260902094556 56 233 0.0 0.0 0.00 0.02 0.00 77 1010.0
20260902093050 56 207 0.0 0.0 0.00 0.02 0.00 76 1010.0
20260902091550 56 207 0.0 0.0 0.00 0.02 0.00 78 1010.3
20260902090148 56 207 0.0 0.0 0.00 0.02 0.00 78 1010.3
20260902084547 57 207 0.0 0.0 0.00 0.02 0.00 78 1010.6
20260902083044 57 207 0.0 0.0 0.00 0.02 0.00 76 1010.6
20260902081550 57 207 0.0 0.0 0.00 0.02 0.00 75 1010.7
20260902080042 57 207 0.0 0.0 0.00 0.02 0.00 75 1010.7
20260902074557 57 215 0.0 2.0 0.00 0.02 0.00 74 1010.8
20260902073038 56 281 0.0 0.0 0.00 0.02 0.00 74 1010.8
20260902071535 56 350 0.0 0.0 0.00 0.02 0.00 74 1011.0
20260902070033 56 350 0.0 0.0 0.00 0.02 0.02 74 1011.1
20260902064535 56 350 0.0 0.0 0.00 0.02 0.02 74 1011.1
20260902063054 56 265 0.0 0.0 0.00 0.02 0.02 75 1011.1
20260902061531 56 338 0.0 0.0 0.00 0.02 0.02 75 1011.1
20260902060030 56 338 0.0 0.0 0.00 0.02 0.02 76 1011.1
20260902054534 56 338 0.0 0.0 0.00 0.02 0.02 77 1011.2
20260902053030 56 17 0.0 0.0 0.00 0.02 0.02 77 1011.3
20260902051538 57 17 0.0 0.0 0.00 0.02 0.02 78 1011.2
20260902050031 57 17 0.0 0.0 0.00 0.02 0.02 79 1011.3
20260902044529 58 17 0.0 0.0 0.00 0.02 0.02 79 1011.4
20260902043027 58 17 0.0 0.0 0.00 0.02 0.02 80 1011.4
20260902041541 59 17 0.0 0.0 0.00 0.02 0.02 80 1011.5
20260902040027 60 17 0.0 0.0 0.00 0.02 0.02 80 1011.4
20260902034526 61 17 0.0 0.0 0.00 0.02 0.02 80 1011.4
20260902033025 62 17 0.0 0.0 0.00 0.02 0.02 80 1011.2
20260902031525 62 17 0.0 0.0 0.00 0.02 0.02 79 1011.1
20260902030024 62 17 0.0 0.0 0.00 0.02 0.02 79 1011.1
20260902024524 63 17 0.0 0.0 0.00 0.02 0.02 79 1011.1
20260902023023 63 17 0.0 0.0 0.00 0.02 0.02 79 1011.0
20260902021525 63 17 0.0 2.0 0.00 0.02 0.02 79 1011.1
20260902020023 64 350 0.0 6.0 0.00 0.02 0.02 78 1011.0
20260902014527 64 255 0.0 1.0 0.00 0.02 0.02 78 1010.9
20260902013021 64 336 0.0 2.0 0.00 0.02 0.02 78 1010.9
20260902011521 64 229 0.0 0.0 0.00 0.02 0.02 78 1010.8
20260902010021 64 229 0.0 2.0 0.00 0.02 0.02 79 1010.8
20260902004528 64 292 0.0 2.0 0.00 0.02 0.02 79 1010.7
20260902003050 64 336 0.0 0.0 0.00 0.02 0.02 79 1010.7
20260902001521 64 336 0.0 0.0 0.01 0.02 0.02 79 1010.7
20260902000030 63 344 0.0 0.0 0.01 0.02 0.02 79 1010.6
20260901234518 63 34 0.0 1.0 0.01 0.02 0.02 79 1010.8
20260901233017 63 32 0.0 2.0 0.01 0.02 0.02 79 1010.9
20260901231516 64 35 0.0 4.0 0.00 0.01 0.01 78 1010.9
20260901230018 64 325 1.0 6.0 0.00 0.01 0.01 76 1011.0
20260901224516 65 221 3.0 6.0 0.00 0.01 0.01 73 1011.0
20260901223015 66 337 2.0 5.0 0.00 0.01 0.01 70 1010.9
20260901221514 66 323 0.0 11.0 0.00 0.01 0.01 71 1010.9
20260901220027 66 230 3.0 9.0 0.00 0.01 0.01 70 1010.8
20260901214513 66 211 2.0 6.0 0.00 0.01 0.01 70 1010.8
20260901213014 67 207 3.0 7.0 0.00 0.01 0.01 70 1010.8
20260901211511 66 71 0.0 3.0 0.00 0.01 0.01 72 1010.9
20260901210010 65 146 1.0 5.0 0.00 0.01 0.01 73 1010.9
20260901204512 65 146 2.0 6.0 0.00 0.01 0.01 73 1011.0
20260901203008 66 225 2.0 6.0 0.00 0.01 0.01 72 1011.1
20260901201506 65 150 0.0 5.0 0.00 0.01 0.01 73 1011.1
20260901200006 65 169 1.0 5.0 0.00 0.01 0.01 74 1011.1
20260901194503 65 167 0.0 5.0 0.00 0.01 0.01 76 1011.2
20260901193005 64 215 2.0 7.0 0.00 0.01 0.01 76 1011.4
20260901191503 64 148 0.0 6.0 0.00 0.01 0.01 76 1011.4
20260901190002 64 234 0.0 4.0 0.00 0.01 0.01 77 1011.6
20260901184558 63 168 2.0 4.0 0.00 0.01 0.01 79 1011.7
20260901183059 62 248 0.0 5.0 0.00 0.01 0.01 80 1011.8
20260901181558 62 146 0.0 4.0 0.00 0.01 0.01 80 1011.9
20260901180053 60 167 1.0 4.0 0.01 0.01 0.01 78 1011.9
20260901174556 59 107 0.0 2.0 0.01 0.01 0.01 75 1011.9
20260901173052 59 150 0.0 3.0 0.01 0.01 0.01 71 1011.9
20260901171607 59 136 0.0 2.0 0.01 0.01 0.01 71 1011.8
20260901170055 58 195 0.0 2.0 0.00 0.00 0.00 71 1011.7
20260901164556 58 167 0.0 3.0 0.00 0.00 0.00 70 1011.6
20260901163105 58 196 0.0 2.0 0.00 0.00 0.00 69 1011.6
20260901161546 58 173 0.0 0.0 0.00 0.00 0.00 69 1011.7
20260901160045 58 223 0.0 0.0 0.00 0.00 0.00 69 1011.8
20260901154553 57 246 0.0 0.0 0.00 0.00 0.00 70 1011.7
20260901153044 57 246 0.0 0.0 0.00 0.00 0.00 70 1011.7
20260901151544 57 246 0.0 0.0 0.00 0.00 0.00 71 1011.7
20260901150041 57 115 0.0 0.0 0.00 0.00 0.00 72 1011.5
20260901144540 57 115 0.0 0.0 0.00 0.00 0.00 72 1011.4
20260901143039 57 115 0.0 0.0 0.00 0.00 0.00 73 1011.4
20260901141537 57 115 0.0 0.0 0.00 0.00 0.00 74 1011.2
20260901140036 57 115 0.0 0.0 0.00 0.00 0.00 76 1011.3
20260901134534 57 115 0.0 0.0 0.00 0.00 0.00 77 1011.2
20260901133033 57 115 0.0 0.0 0.00 0.00 0.00 78 1011.1
20260901131532 58 115 0.0 0.0 0.00 0.00 0.00 78 1011.1
20260901130031 58 115 0.0 0.0 0.00 0.00 0.00 79 1011.0
20260901124529 58 115 0.0 0.0 0.00 0.00 0.00 80 1010.9
20260901123029 58 115 0.0 0.0 0.00 0.00 0.00 80 1010.9
20260901121536 57 71 0.0 0.0 0.00 0.00 0.00 79 1010.9
20260901120027 57 71 0.0 0.0 0.00 0.00 0.00 79 1010.8
20260901114526 57 71 0.0 0.0 0.00 0.00 0.00 79 1010.9
20260901113025 57 71 0.0 0.0 0.00 0.00 0.00 79 1010.8
20260901111523 56 71 0.0 0.0 0.00 0.00 0.00 79 1010.7
20260901110021 56 71 0.0 0.0 0.00 0.00 0.00 79 1010.5
20260901104532 56 71 0.0 0.0 0.00 0.00 0.00 79 1010.5
20260901103028 56 71 0.0 0.0 0.00 0.00 0.00 79 1010.5
20260901101518 56 71 0.0 0.0 0.00 0.00 0.00 79 1010.5
20260901100015 57 71 0.0 0.0 0.00 0.00 0.00 80 1010.4